Terminal Aerodrome Forecast
Issued by NWS Rapid City, SD

Home | Current Version | Previous Version | Graphics & Text | Print | Product List | Glossary On
Versions: 1 2 3 4 5 6 7 8 9 10 11 12 13 14 15 16 17 18 19 20 21 22 23 24
946
FTUS43 KUNR 101257 AAA
TAFRAP
TAF AMD
KRAP 101257Z 1013/1112 13010KT P6SM OVC013
     FM110300 05007KT P6SM OVC015
     FM110700 35015KT P6SM -SN OVC025=

USA.gov is the U.S. government's official web portal to all federal, state and local government web resources and services.